Flag for Belgium Weather past 2 weeks in Kortrijk, Belgium

Now
64 °F

Light rain. Partly sunny.


Feels Like: 64 °F
Forecast: 52 / 65 °F
Wind: 13 mph from Southwest

Location: Lille Airport

Current Time: Aug 30, 2014 at 3:03:08 PM

Latest Report: Aug 30, 2014 at 2:30 PM


Visibility: N/A

Pressure: 30.01 "Hg

Humidity: 88%

Dew point: 61 °F

Location of KortrijkLocation

Historic Weather in Kortrijk — Graph

°F

Kortrijk temperature yesterday

Maximum temperature yesterday: 72 °F (at 3:30 PM)
Minimum temperature yesterday: 57 °F (at 12:00 AM)
Average temperature yesterday: 64 °F

Past Weeks' High & Low Weather Summary

 TemperatureHumidityPressure
High72 °F (Aug 16, 3:30 PM)100% (Aug 16, 3:30 AM)30.15 "Hg (Aug 16, 3:30 AM)
Low46 °F (Aug 20, 5:00 AM)43% (Aug 23, 5:00 PM)29.59 "Hg (Aug 26, 2:00 AM)
Average59 °F80%29.94 "Hg
* Reported Aug 15 2:30 PM — Aug 30 2:00 PM, Kortrijk, Weather by CustomWeather, © 2014

Note: Actual official high and low records may vary slightly from our data, if they occured in-between our weather recording intervals... More about our weather records

Advertising

Kortrijk weather history for previous 24 hours

 ConditionsComfort  
Time TempWeatherWind HumidityBarometerVisibility
2:00 PM
Aug 30
64 °FLight rain. Partly sunny.14 mph88%30.01 "HgN/A
1:30 PM64 °FPartly sunny.13 mph88%30.04 "HgN/A
12:30 PM64 °FOvercast.16 mph83%30.01 "HgN/A
12:00 PM64 °FOvercast.13 mph83%30.04 "HgN/A
11:30 AM63 °FOvercast.13 mph88%30.04 "HgN/A
11:00 AM63 °FDrizzle. Low clouds.12 mph88%30.04 "Hg4 mi
10:30 AM63 °FOvercast.13 mph83%30.04 "HgN/A
10:00 AM61 °FLight rain. Partly sunny.13 mph94%30.01 "HgN/A
9:30 AM61 °FLight rain. Partly sunny.12 mph88%30.01 "HgN/A
9:00 AM61 °FLight rain. Partly sunny.12 mph88%30.04 "HgN/A
8:30 AM61 °FLight rain. Broken clouds.12 mph88%30.01 "Hg5 mi
8:00 AM61 °FBroken clouds.14 mph88%30.01 "HgN/A
7:30 AM59 °FPartly cloudy.12 mph94%30.01 "HgN/A
7:00 AM61 °FPassing clouds.10 mph88%30.01 "HgN/A
6:30 AM61 °FPassing clouds.12 mph88%30.01 "HgN/A
6:00 AM61 °FPassing clouds.14 mph83%30.01 "HgN/A
5:00 AM61 °FPassing clouds.13 mph83%30.01 "HgN/A
4:30 AM61 °FOvercast.12 mph83%30.01 "HgN/A
4:00 AM61 °FMostly cloudy.13 mph83%30.01 "HgN/A
3:30 AM61 °FPartly cloudy.13 mph83%30.01 "HgN/A
3:00 AM61 °FPassing clouds.10 mph83%30.01 "HgN/A
2:30 AM61 °FPassing clouds.12 mph83%30.04 "HgN/A
2:00 AM61 °FPassing clouds.8 mph83%30.04 "HgN/A
1:00 AM61 °FPassing clouds.8 mph83%30.04 "HgN/A
12:00 AM61 °FClear.9 mph83%30.04 "Hg10 mi
11:30 PM
Aug 29
61 °FClear.9 mph83%30.04 "Hg10 mi
11:00 PM61 °FClear.9 mph83%30.04 "Hg10 mi
9:00 PM64 °FPartly sunny.12 mph73%30.01 "HgN/A
8:30 PM64 °FPassing clouds.13 mph68%30.01 "HgN/A
8:00 PM64 °FPassing clouds.15 mph68%30.01 "HgN/A
7:30 PM66 °FPassing clouds.17 mph60%30.01 "HgN/A
7:00 PM68 °FScattered clouds.17 mph60%30.01 "HgN/A
6:30 PM68 °FPartly sunny.16 mph60%30.01 "HgN/A
6:00 PM70 °FScattered clouds.18 mph57%30.01 "HgN/A
5:30 PM70 °FScattered clouds.18 mph53%30.01 "HgN/A
5:00 PM72 °FBroken clouds.18 mph53%30.01 "HgN/A
4:30 PM72 °FBroken clouds.16 mph53%30.01 "HgN/A
4:00 PM70 °FBroken clouds.15 mph57%30.01 "HgN/A
3:30 PM72 °FBroken clouds.13 mph57%30.01 "HgN/A
3:00 PM70 °FBroken clouds.16 mph57%30.01 "HgN/A
Weather by CustomWeather, © 2014

See weather overviewHow to use our weather pages